RYR57TM LFRS-EGGD

Flight info

Callsign RYR57TM
Flight time 0h 51m
Altitude 32000
Route BALNI DCT OTOFE DCT SKESO DCT BHD DCT EXMOR
Aircraft B738/M-SDE2E3FGHIRWXY/LB1

Departure

Time 2026-05-04 13:31
Airport Nantes Atlantique Airport (LFRS)

Arrival

Time 2026-05-04 14:22
Airport Bristol Airport (EGGD)
Time Latitude Longitude Altitude Speed Heading
2026-05-04 13:04 47.15733 -1.60310 97 ft 0 kts 80°
2026-05-04 13:20 47.15731 -1.60323 98 ft 4 kts 80°
2026-05-04 13:20 47.15726 -1.60362 97 ft 4 kts 79°
2026-05-04 13:20 47.15722 -1.60401 96 ft 4 kts 86°
2026-05-04 13:21 47.15722 -1.60440 97 ft 4 kts 96°
2026-05-04 13:21 47.15724 -1.60469 97 ft 1 kts 94°
2026-05-04 13:21 47.15725 -1.60474 96 ft 0 kts 94°
2026-05-04 13:24 47.15719 -1.60440 98 ft 5 kts 110°
2026-05-04 13:24 47.15686 -1.60380 100 ft 11 kts 136°
2026-05-04 13:24 47.15615 -1.60290 100 ft 14 kts 149°
2026-05-04 13:25 47.15539 -1.60445 98 ft 13 kts 302°
2026-05-04 13:25 47.15584 -1.60555 99 ft 13 kts 282°
2026-05-04 13:25 47.15531 -1.60643 97 ft 13 kts 208°
2026-05-04 13:25 47.15443 -1.60709 97 ft 15 kts 207°
2026-05-04 13:26 47.15351 -1.60779 96 ft 14 kts 207°
2026-05-04 13:26 47.15264 -1.60846 97 ft 14 kts 208°
2026-05-04 13:26 47.15181 -1.60910 98 ft 14 kts 207°
2026-05-04 13:26 47.15088 -1.60981 97 ft 16 kts 207°
2026-05-04 13:27 47.14977 -1.61065 97 ft 18 kts 207°
2026-05-04 13:27 47.14865 -1.61150 96 ft 17 kts 207°
2026-05-04 13:27 47.14765 -1.61226 94 ft 15 kts 207°
2026-05-04 13:27 47.14694 -1.61280 97 ft 9 kts 207°
2026-05-04 13:28 47.14627 -1.61330 93 ft 14 kts 207°
2026-05-04 13:28 47.14526 -1.61407 90 ft 17 kts 207°
2026-05-04 13:28 47.14421 -1.61488 88 ft 18 kts 207°
2026-05-04 13:28 47.14302 -1.61578 84 ft 20 kts 207°
2026-05-04 13:29 47.14192 -1.61666 83 ft 16 kts 218°
2026-05-04 13:29 47.14144 -1.61806 71 ft 15 kts 256°
2026-05-04 13:29 47.14190 -1.61920 83 ft 14 kts 356°
2026-05-04 13:29 47.14261 -1.61879 80 ft 0 kts 26°
2026-05-04 13:30 47.14272 -1.61870 80 ft 10 kts 26°
2026-05-04 13:30 47.14546 -1.61662 93 ft 78 kts 27°
2026-05-04 13:30 47.15221 -1.61152 96 ft 137 kts 27°
2026-05-04 13:30 47.16174 -1.60404 357 ft 162 kts 28°
2026-05-04 13:31 47.17175 -1.59604 952 ft 173 kts 22°
2026-05-04 13:31 47.18413 -1.59411 1462 ft 186 kts 349°
2026-05-04 13:31 47.19626 -1.60076 2243 ft 184 kts 338°
2026-05-04 13:31 47.20801 -1.60811 2932 ft 185 kts 340°
2026-05-04 13:32 47.22018 -1.61499 3576 ft 192 kts 343°
2026-05-04 13:32 47.23342 -1.62019 4111 ft 199 kts 351°
2026-05-04 13:32 47.24770 -1.62310 4422 ft 220 kts 354°
2026-05-04 13:32 47.26380 -1.62517 4575 ft 247 kts 357°
2026-05-04 13:33 47.28148 -1.62673 5021 ft 261 kts 355°
2026-05-04 13:33 47.29992 -1.62952 5637 ft 268 kts 354°
2026-05-04 13:33 47.31845 -1.63251 6347 ft 272 kts 354°
2026-05-04 13:33 47.33747 -1.63548 7047 ft 276 kts 355°
2026-05-04 13:34 47.35680 -1.63836 7734 ft 282 kts 355°
2026-05-04 13:34 47.37642 -1.64119 8477 ft 285 kts 355°
2026-05-04 13:34 47.39639 -1.64399 9237 ft 289 kts 355°
2026-05-04 13:34 47.41664 -1.64678 9980 ft 294 kts 355°
2026-05-04 13:35 47.43719 -1.64957 10444 ft 311 kts 355°
2026-05-04 13:35 47.48318 -1.65579 11222 ft 343 kts 355°
2026-05-04 13:35 47.50716 -1.65903 11954 ft 346 kts 355°
2026-05-04 13:36 47.53102 -1.66225 12699 ft 350 kts 355°
2026-05-04 13:36 47.55544 -1.66553 13446 ft 355 kts 355°
2026-05-04 13:36 47.58026 -1.66887 14163 ft 360 kts 355°
2026-05-04 13:36 47.60539 -1.67226 14829 ft 365 kts 355°
2026-05-04 13:37 47.63060 -1.67928 15474 ft 372 kts 341°
2026-05-04 13:37 47.65477 -1.69302 16141 ft 377 kts 337°
2026-05-04 13:37 47.67913 -1.70818 16875 ft 381 kts 336°
2026-05-04 13:37 47.69533 -1.71842 17347 ft 384 kts 336°
2026-05-04 13:38 47.72853 -1.73932 18282 ft 390 kts 336°
2026-05-04 13:38 47.75376 -1.75499 18860 ft 395 kts 336°
2026-05-04 13:38 47.77936 -1.77073 19458 ft 400 kts 336°
2026-05-04 13:38 47.80528 -1.78654 20055 ft 404 kts 336°
2026-05-04 13:39 47.83116 -1.80226 20635 ft 408 kts 336°
2026-05-04 13:39 47.85778 -1.81839 21198 ft 413 kts 336°
2026-05-04 13:39 47.88461 -1.83465 21751 ft 418 kts 336°
2026-05-04 13:39 47.91141 -1.85090 22305 ft 423 kts 336°
2026-05-04 13:40 47.93881 -1.86753 22858 ft 427 kts 336°
2026-05-04 13:40 47.96653 -1.88436 23397 ft 432 kts 336°
2026-05-04 13:40 47.99456 -1.90141 23866 ft 436 kts 336°
2026-05-04 13:40 48.02245 -1.91839 24337 ft 439 kts 336°
2026-05-04 13:41 48.05092 -1.93575 24829 ft 441 kts 336°
2026-05-04 13:41 48.07943 -1.95315 25298 ft 444 kts 336°
2026-05-04 13:41 48.10827 -1.97078 25747 ft 447 kts 336°
2026-05-04 13:42 48.16591 -2.00607 26634 ft 452 kts 336°
2026-05-04 13:42 48.19521 -2.02405 27096 ft 454 kts 336°
2026-05-04 13:42 48.22454 -2.04206 27704 ft 452 kts 336°
2026-05-04 13:42 48.25330 -2.05973 28353 ft 449 kts 336°
2026-05-04 13:43 48.28222 -2.07753 28941 ft 448 kts 336°
2026-05-04 13:43 48.31116 -2.09537 29472 ft 448 kts 336°
2026-05-04 13:43 48.34008 -2.11323 30003 ft 448 kts 336°
2026-05-04 13:43 48.36890 -2.13104 30497 ft 447 kts 336°
2026-05-04 13:44 48.39724 -2.14858 31014 ft 444 kts 336°
2026-05-04 13:44 48.42572 -2.16622 31577 ft 441 kts 336°
2026-05-04 13:44 48.45404 -2.18379 31983 ft 441 kts 336°
2026-05-04 13:44 48.48275 -2.20163 31966 ft 445 kts 336°
2026-05-04 13:45 48.53985 -2.23715 31982 ft 439 kts 336°
2026-05-04 13:45 48.59600 -2.27217 32001 ft 439 kts 336°
2026-05-04 13:46 48.65282 -2.30770 31999 ft 441 kts 336°
2026-05-04 13:46 48.70946 -2.34321 31998 ft 442 kts 336°
2026-05-04 13:47 48.76623 -2.37888 31994 ft 443 kts 336°
2026-05-04 13:47 48.82333 -2.41485 31998 ft 442 kts 336°
2026-05-04 13:48 48.87986 -2.45054 31989 ft 442 kts 336°
2026-05-04 13:48 48.93686 -2.48661 31986 ft 442 kts 336°
2026-05-04 13:49 48.99354 -2.52147 31989 ft 440 kts 337°
2026-05-04 13:49 49.05044 -2.55571 31997 ft 438 kts 337°
2026-05-04 13:50 49.10679 -2.58978 31996 ft 437 kts 336°
2026-05-04 13:50 49.16345 -2.62426 32000 ft 438 kts 336°
2026-05-04 13:51 49.21996 -2.65879 32042 ft 439 kts 337°
2026-05-04 13:51 49.27684 -2.69365 32021 ft 439 kts 337°
2026-05-04 13:52 49.36176 -2.74583 32018 ft 438 kts 337°
2026-05-04 13:53 49.41813 -2.78057 32015 ft 437 kts 337°
2026-05-04 13:53 49.47462 -2.81548 32003 ft 436 kts 337°
2026-05-04 13:54 49.54927 -2.86174 31998 ft 431 kts 337°
2026-05-04 13:54 49.60401 -2.89575 31430 ft 420 kts 336°
2026-05-04 13:55 49.64003 -2.91820 30734 ft 422 kts 336°
2026-05-04 13:55 49.68571 -2.94671 29976 ft 421 kts 336°
2026-05-04 13:55 49.71256 -2.96348 29552 ft 418 kts 336°
2026-05-04 13:56 49.73948 -2.98033 29162 ft 414 kts 336°
2026-05-04 13:56 49.76610 -2.99700 28759 ft 410 kts 336°
2026-05-04 13:56 49.81850 -3.02989 27909 ft 405 kts 335°
2026-05-04 13:57 49.84421 -3.04769 27452 ft 402 kts 332°
2026-05-04 13:57 49.86952 -3.06730 26716 ft 408 kts 330°
2026-05-04 13:58 49.94418 -3.12792 25467 ft 400 kts 329°
2026-05-04 13:58 49.99337 -3.16749 24716 ft 394 kts 330°
2026-05-04 13:58 50.01737 -3.18669 24361 ft 391 kts 330°
2026-05-04 13:59 50.04163 -3.20608 23984 ft 390 kts 330°
2026-05-04 13:59 50.06574 -3.22536 23614 ft 388 kts 330°
2026-05-04 13:59 50.11327 -3.26340 22783 ft 383 kts 330°
2026-05-04 14:00 50.13691 -3.28235 22399 ft 380 kts 330°
2026-05-04 14:00 50.18344 -3.31972 21679 ft 373 kts 330°
2026-05-04 14:00 50.20647 -3.33825 21327 ft 370 kts 330°
2026-05-04 14:01 50.22929 -3.35663 20977 ft 367 kts 330°
2026-05-04 14:01 50.25165 -3.37467 20626 ft 364 kts 330°
2026-05-04 14:01 50.29646 -3.41087 19931 ft 359 kts 331°
2026-05-04 14:02 50.31863 -3.42881 19585 ft 357 kts 331°
2026-05-04 14:02 50.34071 -3.44668 19245 ft 355 kts 331°
2026-05-04 14:02 50.36233 -3.46420 18910 ft 353 kts 331°
2026-05-04 14:02 50.38442 -3.48113 18549 ft 351 kts 339°
2026-05-04 14:03 50.40817 -3.49003 18266 ft 347 kts 355°
2026-05-04 14:03 50.43191 -3.48994 18076 ft 338 kts
2026-05-04 14:03 50.45493 -3.48626 17763 ft 334 kts
2026-05-04 14:03 50.47802 -3.48200 17422 ft 332 kts
2026-05-04 14:04 50.52406 -3.47343 16652 ft 334 kts
2026-05-04 14:04 50.54717 -3.46927 16263 ft 334 kts
2026-05-04 14:04 50.57003 -3.46523 15883 ft 333 kts
2026-05-04 14:05 50.61624 -3.45721 15133 ft 333 kts
2026-05-04 14:05 50.63899 -3.45330 14769 ft 332 kts
2026-05-04 14:05 50.66200 -3.44936 14416 ft 332 kts
2026-05-04 14:06 50.68501 -3.44542 14056 ft 331 kts
2026-05-04 14:06 50.70772 -3.44152 13688 ft 330 kts
2026-05-04 14:06 50.73065 -3.43760 13276 ft 330 kts
2026-05-04 14:06 50.75343 -3.43369 12890 ft 329 kts
2026-05-04 14:07 50.77628 -3.42977 12503 ft 328 kts
2026-05-04 14:07 50.79859 -3.42594 12118 ft 324 kts
2026-05-04 14:07 50.82091 -3.42210 11765 ft 319 kts
2026-05-04 14:07 50.84293 -3.41831 11442 ft 316 kts
2026-05-04 14:08 50.86474 -3.41455 11110 ft 314 kts
2026-05-04 14:08 50.88645 -3.41081 10784 ft 312 kts
2026-05-04 14:08 50.90771 -3.40714 10469 ft 310 kts
2026-05-04 14:08 50.92907 -3.40345 10150 ft 307 kts
2026-05-04 14:09 50.97074 -3.39624 9457 ft 294 kts
2026-05-04 14:09 50.99086 -3.39276 9107 ft 288 kts
2026-05-04 14:10 51.02962 -3.38603 8501 ft 275 kts
2026-05-04 14:10 51.04842 -3.38277 8231 ft 268 kts
2026-05-04 14:10 51.06675 -3.37958 7965 ft 261 kts
2026-05-04 14:10 51.08468 -3.37646 7708 ft 255 kts
2026-05-04 14:11 51.10215 -3.37342 7469 ft 250 kts
2026-05-04 14:11 51.13589 -3.36754 6885 ft 240 kts
2026-05-04 14:11 51.15240 -3.36466 6579 ft 236 kts
2026-05-04 14:12 51.16858 -3.36146 6276 ft 232 kts 14°
2026-05-04 14:12 51.18218 -3.34916 5944 ft 225 kts 50°
2026-05-04 14:12 51.19832 -3.30879 5472 ft 208 kts 61°
2026-05-04 14:13 51.20539 -3.28891 5287 ft 205 kts 62°
2026-05-04 14:13 51.21235 -3.26931 5103 ft 200 kts 61°
2026-05-04 14:13 51.21915 -3.25026 4930 ft 197 kts 62°
2026-05-04 14:13 51.22591 -3.23139 4735 ft 194 kts 62°
2026-05-04 14:14 51.23264 -3.21264 4553 ft 196 kts 62°
2026-05-04 14:14 51.24615 -3.17514 4192 ft 191 kts 62°
2026-05-04 14:14 51.25275 -3.15684 4021 ft 189 kts 62°
2026-05-04 14:15 51.26573 -3.12087 3643 ft 184 kts 62°
2026-05-04 14:15 51.27831 -3.08595 3286 ft 183 kts 61°
2026-05-04 14:16 51.29101 -3.05068 2940 ft 178 kts 61°
2026-05-04 14:16 51.29839 -3.03538 2729 ft 173 kts 38°
2026-05-04 14:17 51.31704 -3.01374 2519 ft 164 kts 38°
2026-05-04 14:17 51.32608 -3.00296 2485 ft 157 kts 38°
2026-05-04 14:17 51.34294 -2.98277 2491 ft 154 kts 38°
2026-05-04 14:18 51.35210 -2.97176 2554 ft 174 kts 38°
2026-05-04 14:18 51.37055 -2.94850 2484 ft 161 kts 52°
2026-05-04 14:19 51.37485 -2.91574 2480 ft 147 kts 83°
2026-05-04 14:19 51.37572 -2.90002 2480 ft 140 kts 84°
2026-05-04 14:19 51.37637 -2.88466 2483 ft 137 kts 84°
2026-05-04 14:19 51.37694 -2.86960 2370 ft 133 kts 85°
2026-05-04 14:20 51.37751 -2.85455 2176 ft 134 kts 84°
2026-05-04 14:20 51.37806 -2.83959 1980 ft 133 kts 84°
2026-05-04 14:20 51.37863 -2.82463 1787 ft 134 kts 83°
2026-05-04 14:21 51.37975 -2.79521 1438 ft 131 kts 83°
2026-05-04 14:21 51.38031 -2.78030 1242 ft 135 kts 81°
2026-05-04 14:21 51.38089 -2.76525 1056 ft 136 kts 83°
2026-05-04 14:21 51.38146 -2.75035 840 ft 134 kts 83°
2026-05-04 14:22 51.38212 -2.73619 762 ft 120 kts 87°
2026-05-04 14:22 51.38252 -2.72335 623 ft 101 kts 85°
2026-05-04 14:22 51.38287 -2.71441 602 ft 69 kts 86°
2026-05-04 14:22 51.38304 -2.70901 602 ft 19 kts 88°
2026-05-04 14:23 51.38406 -2.70723 613 ft 1 kts 19°
2026-05-04 14:24 51.38420 -2.70715 616 ft 3 kts 18°
2026-05-04 14:24 51.38458 -2.70725 610 ft 8 kts 324°
2026-05-04 14:24 51.38467 -2.70812 611 ft 8 kts 266°
2026-05-04 14:25 51.38464 -2.70904 612 ft 8 kts 267°
2026-05-04 14:25 51.38457 -2.71125 616 ft 13 kts 267°
2026-05-04 14:25 51.38450 -2.71283 617 ft 13 kts 266°
2026-05-04 14:26 51.38471 -2.71391 618 ft 11 kts 335°
2026-05-04 14:26 51.38520 -2.71403 616 ft 2 kts 355°
2026-05-04 14:26 51.38530 -2.71404 617 ft 2 kts 355°
2026-05-04 14:26 51.38541 -2.71405 614 ft 1 kts 356°
2026-05-04 14:27 51.38549 -2.71406 617 ft 0 kts 356°